Linden, NJ

10:21 AM EDT on September 18, 2019 (GMT -0400)
Linden

Weather History for KLDJ - August, 2019

Change the Weather History Date:

Monday, August 19, 2019

  Actual Average (KEWR) Record (KEWR)
Temperature  
Mean Temperature 82 °F -  
Max Temperature 91 °F 82 °F 96 °F (2002)
Min Temperature 72 °F 66 °F 54 °F (1958)
Cooling Degree Days 16    
Growing Degree Days 32 (Base 50)    
Moisture  
Dew Point 69 °F    
Average Humidity 72    
Maximum Humidity 87    
Minimum Humidity 46    
Precipitation  
Precipitation 0.00 in - - ()
Sea Level Pressure  
Sea Level Pressure 29.98 in    
Wind  
Wind Speed 1 mph (WNW)    
Max Wind Speed 13 mph    
Max Gust Speed 17 mph    
Visibility 10 miles    
Events Thunderstorm    
Averages and records for this station are not official NWS values.
T = Trace of Precipitation, MM = Missing Value Source: NWS Daily Summary

Daily Weather History Graph

Daily Weather History Graph

Search for Another Location

Airport or City:

Astronomy

Aug. 19, 2019 Rise Set
Actual Time 6:11 AM EDT 7:49 PM EDT
Civil Twilight 5:42 AM EDT 8:18 PM EDT
Nautical Twilight 5:06 AM EDT 8:53 PM EDT
Astronomical Twilight 4:29 AM EDT 9:30 PM EDT
Moon 10:08 PM EDT (8/19) 9:50 AM EDT (8/19)
Length of Visible Light 14h 36m
Length of Day
13h 38m
Waning Gibbous, 85% of the Moon is Illuminated
Aug 19
Waning Gibbous
Aug 23
Last Quarter
Aug 30
New
Sep 5
First Quarter
Sep 14
Full

Hourly Weather History & Observations

Time (EDT) Temp. Heat Index Dew Point Humidity Pressure Visibility Wind Dir Wind Speed Gust Speed Precip Events Conditions
12:15 AM 73.8 °F - 66.0 °F 77% 29.97 in 10.0 mi Calm Calm - N/A   Clear
12:35 AM 74.3 °F - 66.2 °F 76% 29.97 in 10.0 mi Calm Calm - N/A   Clear
12:55 AM 73.8 °F - 66.2 °F 77% 29.97 in 10.0 mi Calm Calm - N/A   Clear
1:15 AM 73.6 °F - 66.4 °F 78% 29.97 in 10.0 mi Calm Calm - N/A   Clear
1:35 AM 73.4 °F - 66.4 °F 79% 29.96 in 10.0 mi Calm Calm - N/A   Clear
1:55 AM 73.4 °F - 66.4 °F 79% 29.95 in 10.0 mi Calm Calm - N/A   Clear
2:15 AM 73.4 °F - 66.4 °F 79% 29.95 in 10.0 mi Calm Calm - N/A   Clear
2:35 AM 73.4 °F - 66.6 °F 79% 29.95 in 10.0 mi Calm Calm - N/A   Clear
2:55 AM 73.4 °F - 66.7 °F 80% 29.95 in 10.0 mi Calm Calm - N/A   Clear
3:15 AM 72.7 °F - 66.7 °F 82% 29.96 in 10.0 mi Calm Calm - N/A   Scattered Clouds
3:35 AM 72.7 °F - 67.1 °F 83% 29.96 in 10.0 mi Calm Calm - N/A   Mostly Cloudy
4:15 AM 72.5 °F - 67.1 °F 83% 29.98 in 10.0 mi Calm Calm - N/A   Overcast
4:35 AM 73.0 °F - 67.3 °F 82% 29.98 in 10.0 mi Calm Calm - N/A   Overcast
4:55 AM 72.9 °F - 67.8 °F 84% 29.98 in 10.0 mi Calm Calm - N/A   Scattered Clouds
5:15 AM 72.5 °F - 67.6 °F 85% 29.99 in 10.0 mi Calm Calm - N/A   Mostly Cloudy
5:35 AM 73.4 °F - 68.2 °F 84% 29.99 in 10.0 mi Calm Calm - N/A   Scattered Clouds
5:55 AM 72.7 °F - 68.2 °F 86% 29.99 in 10.0 mi Calm Calm - N/A   Clear
6:15 AM 72.9 °F - 68.9 °F 87% 30.00 in 10.0 mi Calm Calm - N/A   Clear
6:35 AM 72.9 °F - 68.9 °F 87% 30.00 in 10.0 mi Calm Calm - N/A   Clear
6:55 AM 73.4 °F - 69.3 °F 87% 30.00 in 10.0 mi Calm Calm - N/A   Scattered Clouds
7:15 AM 74.3 °F - 69.8 °F 86% 30.00 in 10.0 mi Calm Calm - N/A   Scattered Clouds
7:55 AM 75.6 °F - 71.4 °F 87% 29.99 in 10.0 mi Calm Calm - N/A   Mostly Cloudy
8:15 AM 76.1 °F - 71.2 °F 85% 29.99 in 10.0 mi Calm Calm - N/A   Scattered Clouds
8:35 AM 76.8 °F - 71.4 °F 83% 30.00 in 10.0 mi Calm Calm - N/A   Scattered Clouds
8:55 AM 78.1 °F - 72.1 °F 82% 30.00 in 10.0 mi Calm Calm - N/A   Mostly Cloudy
9:15 AM 77.5 °F - 71.8 °F 82% 30.00 in 10.0 mi West 4.6 mph - N/A   Mostly Cloudy
9:35 AM 77.9 °F - 72.0 °F 82% 30.00 in 10.0 mi Calm Calm - N/A   Scattered Clouds
9:55 AM 79.0 °F - 72.3 °F 80% 29.99 in 10.0 mi Calm Calm - N/A   Scattered Clouds
10:15 AM 80.6 °F 84.9 °F 72.5 °F 76% 29.99 in 10.0 mi Calm Calm - N/A   Clear
10:35 AM 82.6 °F 88.3 °F 73.0 °F 73% 29.99 in 10.0 mi WNW 12.7 mph - N/A   Clear
10:55 AM 82.6 °F 87.6 °F 71.8 °F 70% 29.99 in 10.0 mi WNW 3.5 mph - N/A   Clear
11:15 AM 84.0 °F 89.0 °F 71.1 °F 65% 29.99 in 10.0 mi WNW 10.4 mph - N/A   Clear
11:35 AM 84.7 °F 89.1 °F 70.0 °F 61% 29.99 in 10.0 mi Calm Calm - N/A   Clear
11:55 AM 85.3 °F 89.8 °F 70.2 °F 60% 29.99 in 10.0 mi Calm Calm - N/A   Clear
12:15 PM 86.7 °F 89.9 °F 67.8 °F 53% 29.99 in 10.0 mi WNW 10.4 mph - N/A   Clear
12:35 PM 87.6 °F 90.8 °F 67.6 °F 51% 29.99 in 10.0 mi Calm Calm - N/A   Clear
12:55 PM 88.2 °F 92.9 °F 69.8 °F 54% 29.98 in 10.0 mi West 4.6 mph - N/A   Clear
1:15 PM 89.2 °F 95.4 °F 71.2 °F 55% 29.97 in 10.0 mi Calm Calm - N/A   Scattered Clouds
1:35 PM - - - N/A% 29.97 in 10.0 mi West 8.1 mph - N/A   Clear
1:55 PM - - - N/A% 29.96 in 10.0 mi Calm Calm - N/A   Scattered Clouds
2:15 PM - - - N/A% 29.96 in 10.0 mi Calm Calm - N/A   Scattered Clouds
2:35 PM 91.0 °F 97.6 °F 71.1 °F 52% 29.95 in 10.0 mi NW 4.6 mph - N/A   Scattered Clouds
2:55 PM 91.4 °F 97.8 °F 71.1 °F 51% 29.94 in 10.0 mi Calm Calm - N/A   Clear
3:15 PM - - - N/A% 29.93 in 10.0 mi WNW 3.5 mph - N/A   Scattered Clouds
3:35 PM - - - N/A% 29.93 in 10.0 mi WNW 10.4 mph - N/A   Scattered Clouds
3:55 PM - - - N/A% 29.93 in 10.0 mi Calm Calm - N/A   Clear
4:15 PM - - - N/A% 29.92 in 10.0 mi Calm Calm - N/A Thunderstorm Clear
4:35 PM 87.8 °F 95.2 °F 73.0 °F 61% 29.91 in 10.0 mi Calm Calm - N/A   Scattered Clouds
4:55 PM 90.0 °F 94.5 °F 69.3 °F 50% 29.91 in 10.0 mi NNW 5.8 mph - N/A   Clear
5:15 PM 91.6 °F 95.7 °F 67.8 °F 46% 29.94 in 10.0 mi ESE 6.9 mph - N/A   Mostly Cloudy
5:55 PM 81.9 °F 85.4 °F 69.6 °F 66% 29.96 in 10.0 mi SSW 9.2 mph 17.3 mph N/A   Overcast
6:15 PM 81.7 °F 85.2 °F 69.8 °F 67% 29.96 in 10.0 mi Calm Calm - N/A   Mostly Cloudy
6:35 PM 81.9 °F 85.4 °F 69.4 °F 66% 29.96 in 10.0 mi Calm Calm - N/A   Scattered Clouds
6:55 PM 81.9 °F 84.2 °F 66.6 °F 60% 29.97 in 10.0 mi SW 4.6 mph - N/A   Scattered Clouds
7:15 PM 81.7 °F 84.2 °F 67.1 °F 61% 29.98 in 10.0 mi Calm Calm - N/A   Scattered Clouds
7:35 PM 80.8 °F 83.1 °F 66.7 °F 62% 29.97 in 10.0 mi Calm Calm - N/A   Scattered Clouds
7:55 PM 80.6 °F 83.2 °F 67.6 °F 65% 29.97 in 10.0 mi Calm Calm - N/A   Clear
8:15 PM 80.1 °F 82.7 °F 68.0 °F 67% 29.98 in 10.0 mi Calm Calm - N/A   Clear
8:35 PM 79.9 °F - 68.5 °F 68% 29.98 in 10.0 mi Calm Calm - N/A   Clear
8:55 PM 79.7 °F - 68.7 °F 69% 29.99 in 10.0 mi Calm Calm - N/A   Clear
9:15 PM 79.7 °F - 68.9 °F 69% 29.99 in 10.0 mi Calm Calm - N/A   Clear
9:35 PM 79.7 °F - 69.1 °F 70% 29.99 in 10.0 mi Calm Calm - N/A   Clear
9:55 PM 79.7 °F - 69.4 °F 71% 30.00 in 10.0 mi Calm Calm - N/A   Clear
10:15 PM 78.8 °F - 69.8 °F 74% 30.01 in 10.0 mi Calm Calm - N/A   Clear
10:35 PM 78.8 °F - 70.0 °F 74% 30.01 in 10.0 mi Calm Calm - N/A   Clear
10:55 PM 78.6 °F - 70.0 °F 75% 30.01 in 10.0 mi Calm Calm - N/A   Clear
11:15 PM 78.3 °F - 70.2 °F 76% 30.01 in 10.0 mi Calm Calm - N/A   Clear
11:35 PM 77.9 °F - 70.2 °F 77% 30.01 in 10.0 mi Calm Calm - N/A   Clear
11:55 PM 77.5 °F - 70.3 °F 78% 30.01 in 10.0 mi Calm Calm - N/A   Clear